Weather Roundup
Issued by NWS

Home | Current Version | Previous Version | Graphics & Text | Print | Product List | Glossary Off
Versions: 1 2 3 4 5 6 7 8 9 10 11 12 13 14 15 16 17 18 19 20 21 22 23 24 25 26 27 28 29 30 31 32 33 34 35 36 37 38 39 40 41 42 43 44 45 46 47 48 49 50

000
NZUS93 KARX 222359
HRRWXR

CURRENT HOURLY OBSERVATIONS ACROSS
MUCH OF THE UPPER MISSISSIPPI VALLEY
NATIONAL WEATHER SERVICE LA CROSSE WI
700 PM CDT FRI AUG 22 2014


...SOUTHEAST MINNESOTA...


CITY           SKY/WX    TMP DP  RH WIND       PRES   REMARKS
ROCHESTER      SUNNY     81  69  67 N8        29.98R
ROCHESTER/MAYO FAIR      82  66  58 N7        29.97R
WINONA         CLEAR     81  70  69 NW5       29.94S
AUSTIN         MOSUNNY   81  72  74 N5        29.97R
ALBERT LEA     MOSUNNY   81  70  69 N7        29.97R
DODGE CENTER   SUNNY     79  72  78 N3        29.98R
PRESTON        SUNNY     79  75  89 N6        29.97R
OWATONNA       MOSUNNY   81  70  69 N10       29.97R
FARIBAULT      SUNNY     81  66  61 N6        29.98R
$$

...ELSEWHERE IN MINNESOTA...


CITY           SKY/WX    TMP DP  RH WIND       PRES   REMARKS
MINNEAPOLIS    CLOUDY    76  68  76 N10       29.98S
INTNL FALLS    MOSUNNY   72  65  78 E3        30.02S
DULUTH         CLOUDY    64  60  87 E9        30.04R
RED WING       SUNNY     79  68  69 N7        29.96R
REDWOOD FALLS  SUNNY     82  69  64 N3        29.97S
MANKATO        SUNNY     79  66  65 N9        29.97R
WORTHINGTON      N/A     81  70  69 NE6       30.00F
FAIRMONT       MOSUNNY   73  63  68 N6        29.97R
$$

...SOUTHWEST WISCONSIN...


CITY           SKY/WX    TMP DP  RH WIND       PRES   REMARKS
LA CROSSE      CLEAR     85  73  67 NW3       29.92S HX  91
PRAIRIE DU CHI MOCLDY    87  72  59 SW3       29.90S HX  93
BOSCOBEL       MOCLDY    87  75  67 CALM      29.91S HX  96
LONE ROCK      NOT AVBL
PLATTEVILLE    MOCLDY    84  77  80 S3        29.94S HX  94
FORT MC COY    CLEAR     84  72  65 W5        29.94S
VIROQUA        FAIR      83  75  77 NW3       29.95S HX  91
WIS DELLS      PTCLDY    87  68  53 CALM      29.93S HX  91
$$

...ELSEWHERE IN WISCONSIN...


CITY           SKY/WX    TMP DP  RH WIND       PRES   REMARKS
MILWAUKEE      FOG       71  69  93 NE7       29.97R VSB 3/4
MADISON        PTCLDY    86  73  65 CALM      29.93R HX  93
GREEN BAY      PTCLDY    77  72  84 E10       29.96R
EAU CLAIRE     CLEAR     80  71  74 N9        29.95R
BLACK RVR FLS  FAIR      83  71  65 NW6       29.93S
MEDFORD        CLOUDY    76  72  87 NE5       29.98R
WAUSAU         MOCLDY    79  73  82 E7        29.95S
WIS RAPIDS     CLEAR     84  73  69 W3        29.96R HX  90
MARSHFIELD     MOCLDY    83  73  72 NW3       29.96R
RICE LAKE      CLOUDY    73  67  83 NW3       30.01S
$$

...NORTHEAST IOWA...


CITY           SKY/WX    TMP DP  RH WIND       PRES   REMARKS
WATERLOO       MOSUNNY   81  68  64 CALM      29.92R
DUBUQUE        MOCLDY    81  78  91 CALM      29.94S
DECORAH        PTCLDY    82  75  78 CALM      29.93F
MASON CITY     PTSUNNY   82  73  74 N3        29.96S
CHARLES CITY   MOSUNNY   82  77  83 N3        29.95R HX  91
OELWEIN        MOCLDY    82  79  89 NE5       29.93S HX  93
$$

...ELSEWHERE IN IOWA...


CITY           SKY/WX    TMP DP  RH WIND       PRES   REMARKS
DES MOINES     CLOUDY    83  75  77 SW7       29.91S HX  90
IOWA CITY      MOCLDY    84  76  76 CALM      29.93S HX  93
FORT DODGE     CLOUDY    81  75  83 CALM      29.96R
MARSHALLTOWN   PTSUNNY   83  76  79 SW7       29.93R HX  91
CEDAR RAPIDS   PTCLDY    81  76  84 SW6       29.93R
$$

...NORTHERN ILLINOIS...


CITY           SKY/WX    TMP DP  RH WIND       PRES   REMARKS
CHICAGO-OHARE  MOCLDY    82  72  71 W6        29.94R
DUPAGE         CLEAR     81  73  76 SW6       29.95R
CHICAGO-MIDWAY MOCLDY    83  74  74 SW10      29.94R
MOLINE         MOCLDY    84  75  74 S3        29.93R HX  92
ROCKFORD       MOCLDY    81  73  76 S6        29.95S
STERLING       MOCLDY    82  75  78 SE3       29.94S
PEORIA         MOCLDY    86  75  69 CALM      29.94S HX  95
$$

NOTE: "FAIR" INDICATES FEW OR NO CLOUDS BELOW 12,000 FEET WITH NO
SIGNIFICANT WEATHER AND/OR OBSTRUCTIONS TO VISIBILITY. WIND
SPEEDS ARE IN MILES-PER-HOUR.



USA.gov is the U.S. government's official web portal to all federal, state and local government web resources and services.